Home > Weather > Schwedt/Oder > Past weeks

Flag for Germany Past Weather in Schwedt/Oder, Brandenburg, Germany — Yesterday and Last 2 Weeks

Now
64 °F

Passing clouds.


Feels Like: 64 °F
Forecast: 60 / 78 °F
Wind: 8 mph from Northeast

Location: Szczecin Airport

Current Time: Jun 1, 2016 at 7:46:38 AM

Latest Report: Jun 1, 2016 at 7:00 AM


Visibility: N/A

Pressure: 29.86 "Hg

Humidity: 94%

Dew Point: 63 °F

Location of Schwedt/OderLocation

Past Weather in Schwedt/Oder — Graph

°F

Schwedt/Oder Temperature Yesterday

Maximum temperature yesterday: 82 °F (at 3:00 PM)
Minimum temperature yesterday: 61 °F (at 5:30 AM)
Average temperature yesterday: 67 °F

High & Low Weather Summary for the Past Weeks

 TemperatureHumidityPressure
High84 °F (May 23, 3:30 PM)100% (May 26, 12:30 AM)30.04 "Hg (May 26, 12:30 AM)
Low43 °F (May 17, 10:30 PM)25% (May 23, 6:00 PM)29.71 "Hg (May 23, 4:00 PM)
Average63 °F71%29.88 "Hg
* Reported May 17 6:00 AM — Jun 1 6:30 AM, Schwedt/Oder, Weather by CustomWeather, © 2016

Note: Actual official high and low records may vary slightly from our data, if they occured in-between our weather recording intervals... More about our weather records

Advertising

Schwedt/Oder Weather History for the Previous 24 Hours

Scroll right to see more
 ConditionsComfort  
Time TempWeatherWind HumidityBarometerVisibility
6:30 AM
Wed, Jun 1
64 °FPassing clouds.7 mph94%29.86 "HgN/A
6:00 AM64 °FSunny.8 mph94%29.86 "Hg10 mi
5:30 AM63 °FPassing clouds.8 mph94%29.86 "HgN/A
5:00 AM63 °FPassing clouds.7 mph94%29.86 "HgN/A
4:30 AM63 °FClear.7 mph94%29.86 "Hg10 mi
4:00 AM63 °FClear.6 mph94%29.86 "Hg10 mi
3:30 AM63 °FClear.6 mph94%29.86 "Hg10 mi
3:00 AM63 °FPassing clouds.6 mph94%29.86 "HgN/A
2:30 AM63 °FPassing clouds.7 mph94%29.86 "HgN/A
2:00 AM63 °FClear.6 mph94%29.89 "Hg10 mi
1:30 AM63 °FClear.6 mph100%29.89 "Hg10 mi
1:00 AM63 °FPassing clouds.5 mph100%29.89 "HgN/A
12:30 AM63 °FSprinkles. Passing clouds.6 mph94%29.89 "HgN/A
12:00 AM63 °FPassing clouds.6 mph94%29.89 "HgN/A
11:30 PM
Tue, May 31
64 °FPassing clouds.5 mph94%29.89 "HgN/A
11:00 PM64 °FPassing clouds.5 mph94%29.89 "HgN/A
10:30 PM64 °FSprinkles. Passing clouds.7 mph94%29.89 "HgN/A
10:00 PM64 °FSunny.7 mph94%29.89 "Hg10 mi
9:30 PM64 °FPassing clouds.7 mph94%29.86 "HgN/A
9:00 PM64 °FSunny.9 mph94%29.86 "Hg10 mi
8:30 PM64 °FSunny.9 mph94%29.86 "Hg10 mi
8:00 PM64 °FScattered clouds.6 mph94%29.86 "HgN/A
7:30 PM64 °FRain showers. Partly sunny.8 mph94%29.86 "Hg4 mi
7:00 PM64 °FSprinkles. Partly sunny.9 mph94%29.89 "HgN/A
6:30 PM64 °FPassing clouds.8 mph94%29.89 "HgN/A
6:00 PM64 °FScattered clouds.9 mph88%29.86 "HgN/A
5:30 PM63 °FSprinkles. Partly sunny.7 mph100%29.89 "HgN/A
5:00 PM64 °FThunderstorms. Partly sunny.17 mph94%29.89 "Hg1 mi
4:30 PM72 °FThundershowers. Partly sunny.13 mph65%29.86 "HgN/A
4:00 PM70 °FScattered clouds.14 mph83%29.86 "HgN/A
3:30 PM73 °FThunderstorms. Partly sunny.5 mph65%29.83 "HgN/A
3:00 PM82 °FThunderstorms. Scattered clouds.2 mph55%29.83 "HgN/A
2:30 PM79 °FScattered clouds.3 mph54%29.83 "HgN/A
2:00 PM81 °FPassing clouds.3 mph54%29.83 "HgN/A
1:30 PM79 °FPassing clouds.6 mph58%29.83 "HgN/A
1:00 PM79 °FPassing clouds.7 mph58%29.86 "HgN/A
12:30 PM77 °FPassing clouds.3 mph57%29.86 "HgN/A
12:00 PM75 °FPassing clouds.5 mph61%29.86 "HgN/A
11:30 AM75 °FSunny.5 mph65%29.86 "Hg10 mi
11:00 AM72 °FSunny.6 mph73%29.86 "Hg10 mi
10:30 AM72 °FSunny.6 mph73%29.86 "Hg10 mi
10:00 AM72 °FPassing clouds.3 mph78%29.86 "HgN/A
9:30 AM70 °FPassing clouds.3 mph83%29.86 "HgN/A
9:00 AM68 °FPassing clouds.3 mph83%29.83 "HgN/A
8:30 AM66 °FSunny.5 mph88%29.83 "Hg10 mi
8:00 AM66 °FSunny.5 mph88%29.83 "Hg10 mi
7:30 AM66 °FPassing clouds.3 mph88%29.83 "HgN/A
7:00 AM64 °FPassing clouds.3 mph88%29.83 "HgN/A
Weather by CustomWeather, © 2016

See weather overviewHow to use our weather pages